Weather History for Ludington, MI

Change the Weather History Date:

Tuesday, March 19, 2013

  Actual Average Record
Temperature  
Mean Temperature 25 °F -  
Max Temperature 30 °F 43 °F 76 °F (2012)
Min Temperature 20 °F 24 °F 4 °F (1950)
Degree Days  
Heating Degree Days 40    
Moisture  
Dew Point 15 °F    
Average Humidity 69    
Maximum Humidity 83    
Minimum Humidity 49    
Precipitation  
Precipitation 0.00 in - - ()
Sea Level Pressure  
Sea Level Pressure 29.73 in    
Wind  
Wind Speed 15 mph (West)    
Max Wind Speed 18 mph    
Max Gust Speed 30 mph    
Visibility 5 miles    
Events Snow    
Averages and records for this station are not official NWS values.
T = Trace of Precipitation, MM = Missing Value Source: NWS Daily Summary

Daily Weather History Graph

Daily Weather History Graph

Search for Another Location

Airport:

Trip Planner

Search our weather history database for the weather conditions in past years. The results will help you decide how hot, cold, wet, or windy it might be!

Date:

Astronomy

Mar. 19, 2013 Rise Set
Actual Time 7:50 AM EDT 7:57 PM EDT
Civil Twilight 7:21 AM EDT 8:25 PM EDT
Nautical Twilight 6:47 AM EDT 8:59 PM EDT
Astronomical Twilight 6:13 AM EDT 9:34 PM EDT
Moon 12:28 PM EDT (3/19) 2:54 AM EDT (3/19)
Length of Visible Light 13h 04m
Length of Day
12h 06m
Waxing Crescent, 49% of the Moon is Illuminated
Mar 19
Waxing Crescent
Mar 19
First Quarter
Mar 27
Full
Apr 3
Last Quarter
Apr 10
New

Hourly Weather History & Observations

Time (EDT) Temp. Windchill Dew Point Humidity Pressure Visibility Wind Dir Wind Speed Gust Speed Precip Events Conditions
12:15 AM 30.2 °F 18.1 °F 25.3 °F 82% 29.55 in 7.0 mi West 18.4 mph 24.2 mph N/A Snow Light Snow
12:34 AM 30.2 °F 19.3 °F 25.5 °F 83% 29.56 in 5.0 mi West 15.0 mph 25.3 mph N/A   Haze
12:55 AM 27.9 °F 16.3 °F 22.8 °F 81% 29.57 in 5.0 mi West 15.0 mph 27.6 mph N/A Snow Light Snow
1:15 AM 26.8 °F 15.9 °F 20.8 °F 78% 29.58 in 5.0 mi West 12.7 mph 26.5 mph N/A Snow Light Snow
1:35 AM 25.3 °F 11.8 °F 18.5 °F 75% 29.59 in 10.0 mi West 18.4 mph 26.5 mph N/A   Overcast
1:55 AM 23.5 °F 10.3 °F 15.8 °F 72% 29.59 in 10.0 mi West 16.1 mph 24.2 mph N/A   Overcast
2:14 AM 23.2 °F 10.3 °F 14.9 °F 71% 29.60 in 10.0 mi West 15.0 mph 27.6 mph N/A Snow Light Snow
2:55 AM 21.7 °F 9.0 °F 15.6 °F 77% 29.60 in 1.8 mi West 13.8 mph 23.0 mph N/A Snow Light Snow
3:15 AM 21.6 °F 8.8 °F 16.5 °F 81% 29.61 in 1.5 mi West 13.8 mph 23.0 mph N/A Snow Light Snow
3:35 AM 21.6 °F 8.2 °F 16.5 °F 81% 29.61 in 1.8 mi West 15.0 mph 25.3 mph N/A Snow Light Snow
3:54 AM 21.6 °F 8.2 °F 15.8 °F 78% 29.61 in 1.8 mi WSW 15.0 mph 21.9 mph N/A Snow Light Snow
4:15 AM 21.0 °F 7.1 °F 15.6 °F 80% 29.60 in 1.2 mi West 16.1 mph 26.5 mph N/A Snow Light Snow
4:35 AM 21.6 °F 9.9 °F 15.8 °F 78% 29.61 in 2.0 mi West 11.5 mph 20.7 mph N/A Snow Light Snow
4:54 AM 21.2 °F 6.8 °F 15.1 °F 77% 29.61 in 1.5 mi West 17.3 mph 29.9 mph N/A Snow Light Snow
5:15 AM 20.8 °F 7.3 °F 15.3 °F 79% 29.60 in 1.5 mi West 15.0 mph 23.0 mph N/A Snow Light Snow
5:35 AM 21.6 °F 9.3 °F 14.7 °F 75% 29.61 in 4.0 mi West 12.7 mph 21.9 mph N/A Snow Light Snow
5:54 AM 21.6 °F 8.8 °F 14.2 °F 73% 29.61 in 4.0 mi West 13.8 mph 24.2 mph N/A Snow Light Snow
6:15 AM 21.6 °F 7.3 °F 14.0 °F 73% 29.62 in 3.0 mi West 17.3 mph 26.5 mph N/A Snow Light Snow
6:34 AM 20.8 °F 6.4 °F 14.0 °F 75% 29.62 in 2.0 mi West 17.3 mph 27.6 mph N/A Snow Light Snow
6:55 AM 21.0 °F 8.1 °F 14.0 °F 74% 29.62 in 2.5 mi West 13.8 mph 25.3 mph N/A Snow Light Snow
7:15 AM 21.0 °F 7.1 °F 14.7 °F 77% 29.63 in 1.8 mi West 16.1 mph 26.5 mph N/A Snow Light Snow
7:34 AM 20.8 °F 6.8 °F 14.7 °F 77% 29.63 in 2.5 mi West 16.1 mph 23.0 mph N/A Snow Light Snow
7:55 AM 20.8 °F 6.8 °F 14.0 °F 75% 29.64 in 2.0 mi West 16.1 mph 24.2 mph N/A Snow Light Snow
8:15 AM 20.3 °F 5.2 °F 14.0 °F 77% 29.65 in 0.8 mi West 18.4 mph 27.6 mph N/A Snow Light Snow
8:34 AM 20.3 °F 7.2 °F 14.4 °F 78% 29.65 in 0.5 mi West 13.8 mph 26.5 mph N/A Snow Light Snow
8:55 AM 20.3 °F 7.2 °F 14.5 °F 78% 29.65 in 1.0 mi West 13.8 mph 20.7 mph N/A Snow Light Snow
9:15 AM 20.3 °F 5.7 °F 14.5 °F 78% 29.66 in 0.8 mi West 17.3 mph 27.6 mph N/A Snow Light Snow
9:34 AM 20.3 °F 5.2 °F 14.5 °F 78% 29.66 in 0.5 mi West 18.4 mph 25.3 mph N/A Snow Light Snow
9:55 AM 20.3 °F 5.7 °F 14.4 °F 78% 29.66 in 0.8 mi West 17.3 mph 24.2 mph N/A Snow Light Snow
10:15 AM 20.3 °F 6.6 °F 14.2 °F 77% 29.67 in 0.2 mi West 15.0 mph 25.3 mph N/A Snow Light Snow
10:35 AM 20.3 °F 7.2 °F 14.4 °F 78% 29.68 in 1.0 mi West 13.8 mph 25.3 mph N/A Snow Light Snow
10:55 AM 20.3 °F 7.7 °F 14.2 °F 77% 29.68 in 0.8 mi WNW 12.7 mph 23.0 mph N/A Snow Light Snow
11:14 AM 20.3 °F 6.6 °F 13.8 °F 76% 29.69 in 0.5 mi West 15.0 mph 24.2 mph N/A Snow Light Snow
11:35 AM 20.3 °F 7.2 °F 13.8 °F 76% 29.69 in 1.0 mi WNW 13.8 mph 23.0 mph N/A Snow Light Snow
11:55 AM 20.3 °F 7.7 °F 13.3 °F 74% 29.70 in 1.8 mi West 12.7 mph 26.5 mph N/A Snow Light Snow
12:15 PM 20.7 °F 10.2 °F 13.8 °F 75% 29.72 in 1.2 mi West 9.2 mph 23.0 mph N/A Snow Light Snow
12:35 PM 21.2 °F 7.3 °F 14.5 °F 75% 29.72 in 0.8 mi West 16.1 mph 23.0 mph N/A Snow Light Snow
12:55 PM 21.0 °F 6.2 °F 14.5 °F 76% 29.73 in 0.5 mi West 18.4 mph 25.3 mph N/A Snow Light Snow
1:15 PM 21.6 °F 9.3 °F 14.9 °F 76% 29.74 in 1.2 mi West 12.7 mph 19.6 mph N/A Snow Light Snow
1:35 PM 21.6 °F 11.3 °F 15.1 °F 76% 29.75 in 1.2 mi West 9.2 mph 24.2 mph N/A Snow Light Snow
1:54 PM 21.6 °F 8.8 °F 15.8 °F 78% 29.75 in 0.2 mi West 13.8 mph 23.0 mph N/A Snow Light Snow
2:15 PM 21.6 °F 11.3 °F 15.1 °F 76% 29.77 in 1.0 mi West 9.2 mph 26.5 mph N/A Snow Light Snow
2:35 PM 21.6 °F 7.8 °F 14.0 °F 73% 29.77 in 4.0 mi West 16.1 mph 24.2 mph N/A Snow Light Snow
2:54 PM 21.6 °F 8.2 °F 14.0 °F 73% 29.77 in 5.0 mi West 15.0 mph 23.0 mph N/A Snow Light Snow
3:15 PM 21.7 °F 10.8 °F 13.6 °F 71% 29.78 in 7.0 mi West 10.4 mph 23.0 mph N/A   Overcast
3:35 PM 22.8 °F 10.9 °F 14.9 °F 72% 29.78 in 7.0 mi West 12.7 mph 20.7 mph N/A   Overcast
3:54 PM 23.4 °F 10.6 °F 14.9 °F 70% 29.78 in 7.0 mi West 15.0 mph 21.9 mph N/A   Overcast
4:15 PM 25.3 °F 15.3 °F 15.8 °F 67% 29.79 in 10.0 mi WNW 10.4 mph 26.5 mph N/A   Overcast
4:34 PM 25.3 °F 13.6 °F 14.9 °F 65% 29.79 in 7.0 mi WNW 13.8 mph 25.3 mph N/A   Overcast
4:55 PM 27.9 °F 15.5 °F 16.7 °F 63% 29.80 in 7.0 mi WNW 17.3 mph 28.8 mph N/A   Overcast
5:15 PM 27.9 °F 16.3 °F 16.3 °F 62% 29.81 in 10.0 mi WNW 15.0 mph 25.3 mph N/A   Overcast
5:34 PM 27.9 °F 15.9 °F 15.8 °F 61% 29.82 in 10.0 mi WNW 16.1 mph 24.2 mph N/A   Overcast
5:55 PM 29.8 °F 18.0 °F 17.1 °F 59% 29.82 in 10.0 mi WNW 17.3 mph 24.2 mph N/A   Mostly Cloudy
6:14 PM 30.2 °F 18.9 °F 16.7 °F 57% 29.83 in 10.0 mi WNW 16.1 mph 26.5 mph N/A   Mostly Cloudy
6:35 PM 30.2 °F 19.8 °F 16.5 °F 57% 29.84 in 7.0 mi West 13.8 mph 28.8 mph N/A   Mostly Cloudy
6:55 PM 30.2 °F 18.5 °F 16.2 °F 56% 29.84 in 10.0 mi WNW 17.3 mph 26.5 mph N/A   Mostly Cloudy
7:14 PM 30.2 °F 18.9 °F 15.6 °F 55% 29.85 in 7.0 mi West 16.1 mph 26.5 mph N/A   Mostly Cloudy
7:35 PM 30.2 °F 20.8 °F 15.3 °F 54% 29.86 in 10.0 mi West 11.5 mph 23.0 mph N/A   Scattered Clouds
7:54 PM 30.2 °F 20.8 °F 14.9 °F 53% 29.87 in 10.0 mi West 11.5 mph 25.3 mph N/A   Scattered Clouds
8:15 PM 27.9 °F 17.3 °F 13.1 °F 54% 29.87 in 10.0 mi West 12.7 mph 25.3 mph N/A   Clear
8:34 PM 28.0 °F 16.5 °F 12.6 °F 52% 29.88 in 10.0 mi West 15.0 mph 23.0 mph N/A   Clear
8:55 PM 29.8 °F 18.9 °F 13.5 °F 51% 29.89 in 10.0 mi West 15.0 mph 27.6 mph N/A   Clear
9:34 PM 29.5 °F 18.0 °F 12.7 °F 50% 29.90 in 10.0 mi WNW 16.1 mph 23.0 mph N/A   Clear
9:55 PM 27.9 °F 16.3 °F 10.8 °F 49% 29.90 in 10.0 mi WNW 15.0 mph 24.2 mph N/A   Clear
10:14 PM 27.9 °F 15.9 °F 11.3 °F 50% 29.90 in 10.0 mi WNW 16.1 mph 24.2 mph N/A   Clear
10:35 PM 27.9 °F 16.8 °F 11.3 °F 50% 29.91 in 10.0 mi WNW 13.8 mph 24.2 mph N/A   Clear
10:55 PM 27.9 °F 16.8 °F 12.2 °F 52% 29.91 in 10.0 mi West 13.8 mph 25.3 mph N/A   Clear
11:14 PM 27.9 °F 16.8 °F 12.2 °F 52% 29.91 in 10.0 mi WNW 13.8 mph 24.2 mph N/A   Clear
11:35 PM 27.9 °F 15.9 °F 12.4 °F 52% 29.91 in 10.0 mi WNW 16.1 mph 26.5 mph N/A   Clear
11:55 PM 27.9 °F 16.3 °F 12.7 °F 53% 29.91 in 10.0 mi WNW 15.0 mph 21.9 mph N/A   Scattered Clouds